{"data":{"norad_id":62473,"intl_designator":"2024-254M","name":"STARLINK-11464 [DTC]","alt_names":[],"object_type":"PAYLOAD","status":"ACTIVE","operator":null,"country":"US","launch_date":"2024-12-31","launch_site_code":"AFETR","launch_vehicle":null,"mission":null,"orbit_class":"UNKNOWN","rcs_meters":null,"size_class":null,"mass_kg":null,"dimensions":null,"purposes":["comms"],"wikipedia_slug":null,"has_3d_model":false,"image_url":null,"decayed_at":null,"tle_current":{"epoch":"2026-09-21T22:25:41.587104Z","epoch_age_seconds":50588,"freshness":"FRESH","line1":"1 62473U 24254M   26264.93450911  .00139740  00000+0  10693-2 0  9995","line2":"2 62473  42.9979 120.2399 0000389 139.4223 220.6674 15.70951330100310","mean_motion":15.7095133,"eccentricity":3.89e-5,"inclination_deg":42.9979,"raan_deg":120.2399,"arg_perigee_deg":139.4223,"mean_anomaly_deg":220.6674,"bstar":0.0010693,"rev_number":10031,"period_min":91.664201971171,"perigee_km":355.914913575,"apogee_km":356.43884319474,"semimajor_km":6734.3138783849,"source":"CELESTRAK","updated_at":"2026-09-22T09:00:49.613292Z"}}}